Probability
0 0 0 0 0 0 0 0 0 0 0 0 0 0 0 0 0 0 0 0 0 0 0 0 0 0 0 0 0 0 0 0 0 0 0 0 0 0 0 0 0 0 0 0
0 0 0 0 0 0 0 0 0 0 0 0 0 0 0 0 0 0 0 0 0 0 0 0 0 0 0 0 0 0 0 0 0 0 0 0 0 0 0 0 0 0 0 0
0 0 0 0 0 0 0 0 0 0 0 0 0 0 0 0 0 0 0 0 0 0 0 0 0 0 0 0 0 0 0 0 0 0 0 0 0 0 0 0 0 0 0 0
0 0 0 0 0 0 0 0 0 0 0 0 0 0 0 0 0 0 0 0 0 0 0 0 0 0 0 0 0 0 0 0 0 0 0 0 0 0 0 0 0 0 0 0
0 0 0 0 0 0 0 0 0 0 0 0 0 0 0 0 0 0 0 0 0 0 0 0 0 0 0 0 0 0 0 0 0 0 0 0 0 0 0 0 0 0 0 0
0 0 0 0 0 0 0 0 0 0 0 0 0 0 0 0 0 0 0 0 0 0 0 0 0 0 0 0 0 0 0 0 0 0 0 0 0 0 0 0 0 0 0 0
0 0 0 0 0 0 0 0 0 0 0 0 0 0 0 0 0 0 0 0 0 0 0 0 0 0 0 0 0 0 0 0 0 0 0 0 0 0 0 0 0 0 0 0
0 0 0 0 0 0 0 0 0 0 0 0 0 0 0 0 0 0 0 0 0 0 0 0 0 0 0 0 0 0 0 0 0 0 0 0 0 0 0 0 0 0 0 0
0 0 0 0 0 0 0 0 0 0 0 0 0 0 0 0 0 0 0 0 0 0 0 0 0 0 0 0 0 0 0 0 0 0 0 0 0 0 0 0 0 0 0 0
0 0 0 0 0 0 0 0 0 0 0 0 0 0 0 0 0 0 0 0 0 0 0 0 0 0 0 0 0 0 0 0 0 0 0 0 0 0 0 0 0 0 0 0
0 0 0 0 0 0 0 0 0 0 0 0 0 0 0 0 0 0 0 0 0 0 0 0 0 0 0 0 0 0 0 0 0 0 0 0 0 0 0 0 0 0 0 0
0 0 0 0 0 0 0 0 0 0 0 0 0 0 0 0 0 0 0 0 0 0 0 0 0 0 0 0 0 0 0 0 0 0 0 0 0 0 0 0 0 0 0 0
0 0 0 0 0 0 0 0 0 0 0 0 0 0 0 0 0 0 0 0 0 0 0 0 0 0 0 0 0 0 0 0 0 0 0 0 0 0 0 0 0 0 0 0
0 0 0 0 0 0 0 0 0 0 0 0 0 0 0 0 0 0 0 0 0 0 0 0 0 0 0 0 0 0 0 0 0 0 0 0 0 0 0 0 0 0 0 0
0 0 0 0 0 0 0 0 0 0 0 0 0 0 0 0 0 0 0 0 0 0 0 0 0 0 0 0 0 0 0 0 0 0 0 0 0 0 0 0 0 0 0 0
0 0 0 0 0 0 0 0 0 0 0 0 0 0 0 0 0 0 0 0 0 0 0 0 0 0 0 0 0 0 0 0 0 0 0 0 0 0 0 0 0 0 0 0
0 0 0 0 0 0 0 0 0 0 0 0 0 0 0 0 0 0 0 0 0 0 0 0 0 0 0 0 0 0 0 0 0 0 0 0 0 0 0 0 0 0 0 0
0 0 0 0 0 0 0 0 0 0 0 0 0 0 0 0 0 0 0 0 0 0 0 0 0 0 0 0 0 0 0 0 0 0 0 0 0 0 0 0 0 0 0 0
0 0 0 0 0 0 0 0 0 0 0 0 0 0 0 0 0 0 0 0 0 0 0 0 0 0 0 0 0 0 0 0 0 0 0 0 0 0 0 0 0 0 0 0
0 0 0 0 0 0 0 0 0 0 0 0 0 0 0 0 0 0 0 0 0 0 0 0 0 0 0 0 0 0 0 0 0 0 0 0 0 0 0 0 0 0 0 0
0 0 0 0 0 0 0 0 0 0 0 0 0 0 0 0 0 0 0 0 0 0 0 0 0 0 0 0 0 0 0 0 0 0 0 0 0 0 0 0 0 0 0 0
0 0 0 0 0 0 0 0 0 0 0 0 0 0 0 0 0 0 0 0 0 0 0 0 0 0 0 0 0 0 0 0 0 0 0 0 0 0 0 0 0 0 0 0
0 0 0 0 0 0 0 0 0 0 0 0 0 0 0 0 0 0 0 0 0 0 0 0 0 0 0 0 0 0 0 0 0 0 0 0 0 0 0 0 0 0 0 0
0 0 0 0 0 0 0 0 0 0 0 0 0 0 0 0 0 0 0 0 0 0 0 0 0 0 0 0 0 0 0 0 0 0 0 0 0 0 0 0 0 0 0 0
0 0 0 0 0 0 0 0 0 0 0 0 0 0 0 0 0 0 0 0 0 0 0 0 0 0 0 0 0 0 0 0 0 0 0 0 0 0 0 0 0 0 0 0
0 0 0 0 0 0 0 0 0 0 0 0 0 0 0 0 0 0 0 0 0 0 0 0 0 0 0 0 0 0 0 0 0 0 0 0 0 0 0 0 0 0 0 0
Height
5640 5650 5659 5670 5678 5686 5693 5700 5707 5714 5720 5726 5732 5739 5744 5748 5753 5760 5765 5770 5775 5781 5786 5791 5796 5800 5803 5807 5810 5813 5815 5818 5819 5821 5823 5824 5825 5825 5825 5825 5824 5824 5823 5822
5640 5649 5659 5666 5674 5681 5688 5695 5702 5708 5714 5720 5726 5731 5736 5741 5747 5753 5759 5764 5769 5774 5779 5784 5789 5793 5796 5799 5802 5805 5807 5810 5812 5813 5815 5816 5817 5817 5817 5817 5816 5816 5815 5813
5640 5649 5656 5664 5671 5678 5685 5692 5698 5704 5709 5713 5719 5724 5730 5735 5741 5746 5752 5757 5762 5767 5772 5777 5782 5785 5788 5791 5794 5797 5799 5802 5804 5806 5807 5808 5808 5809 5809 5808 5808 5807 5806 5805
5639 5646 5654 5662 5669 5676 5682 5689 5694 5699 5704 5708 5714 5719 5725 5730 5734 5740 5746 5751 5756 5760 5765 5770 5774 5777 5780 5783 5786 5788 5791 5793 5795 5797 5798 5799 5800 5800 5800 5800 5799 5798 5796 5795
5640 5646 5653 5660 5668 5674 5680 5685 5691 5695 5699 5704 5708 5713 5720 5723 5729 5735 5740 5744 5749 5753 5757 5761 5765 5769 5772 5775 5778 5780 5783 5785 5786 5788 5789 5791 5791 5791 5791 5791 5790 5789 5788 5786
5641 5647 5653 5660 5666 5672 5677 5682 5687 5690 5693 5698 5703 5706 5713 5718 5724 5728 5732 5736 5741 5745 5749 5753 5757 5760 5763 5766 5769 5772 5774 5776 5778 5779 5780 5781 5782 5782 5782 5781 5781 5780 5778 5777
5642 5648 5653 5659 5664 5669 5674 5679 5683 5685 5688 5694 5697 5700 5708 5712 5716 5720 5724 5728 5732 5737 5741 5744 5748 5751 5754 5758 5760 5763 5765 5767 5769 5770 5771 5772 5772 5773 5772 5772 5771 5770 5768 5767
5644 5649 5653 5658 5662 5667 5671 5676 5680 5683 5686 5690 5691 5694 5702 5706 5709 5712 5716 5720 5724 5728 5732 5735 5739 5742 5745 5749 5752 5754 5756 5758 5760 5761 5762 5763 5763 5763 5763 5762 5761 5760 5758 5757
5645 5650 5653 5657 5661 5665 5668 5672 5676 5679 5681 5684 5686 5690 5695 5699 5702 5705 5709 5713 5716 5720 5723 5726 5730 5733 5736 5739 5742 5745 5747 5749 5750 5751 5752 5753 5753 5753 5753 5752 5751 5750 5749 5747
5647 5650 5653 5656 5660 5663 5666 5669 5672 5674 5676 5678 5681 5684 5689 5692 5696 5699 5702 5705 5708 5711 5714 5717 5721 5724 5727 5730 5733 5735 5737 5739 5741 5742 5743 5743 5744 5743 5743 5742 5741 5740 5739 5737
5647 5650 5652 5654 5657 5660 5663 5666 5668 5670 5672 5674 5676 5681 5683 5686 5689 5692 5695 5697 5700 5703 5706 5709 5712 5715 5718 5721 5724 5726 5728 5730 5731 5732 5733 5733 5734 5734 5733 5732 5731 5730 5729 5727
5647 5649 5650 5652 5655 5657 5659 5662 5664 5667 5668 5669 5671 5677 5677 5680 5682 5685 5687 5690 5693 5695 5698 5701 5704 5707 5709 5712 5714 5717 5718 5720 5721 5722 5723 5724 5724 5724 5723 5723 5722 5721 5719 5718
5645 5647 5648 5650 5653 5654 5655 5658 5660 5661 5663 5664 5666 5672 5672 5674 5676 5678 5680 5683 5685 5688 5690 5693 5696 5698 5701 5703 5705 5707 5709 5711 5712 5713 5714 5714 5714 5714 5714 5713 5712 5711 5710 5709
5643 5644 5646 5648 5649 5650 5652 5653 5655 5656 5657 5659 5662 5665 5667 5668 5670 5672 5674 5675 5678 5680 5682 5685 5687 5690 5692 5694 5696 5698 5700 5701 5702 5703 5704 5705 5705 5705 5704 5704 5703 5702 5701 5700
5640 5641 5642 5643 5644 5646 5647 5649 5650 5651 5653 5655 5657 5658 5661 5662 5664 5666 5667 5669 5671 5673 5675 5677 5680 5682 5684 5686 5688 5689 5691 5692 5694 5694 5695 5695 5695 5695 5695 5695 5694 5693 5692 5691
5636 5637 5638 5639 5640 5641 5642 5644 5645 5646 5648 5649 5651 5653 5655 5656 5658 5660 5661 5663 5665 5666 5668 5670 5672 5674 5676 5678 5680 5681 5683 5684 5685 5686 5686 5687 5687 5687 5687 5686 5686 5685 5684 5683
5632 5633 5634 5635 5635 5636 5638 5640 5640 5641 5643 5644 5645 5649 5648 5650 5652 5654 5655 5657 5659 5660 5662 5664 5666 5667 5669 5671 5672 5674 5675 5676 5677 5678 5678 5678 5679 5679 5678 5678 5677 5677 5676 5675
5628 5628 5629 5630 5631 5632 5636 5634 5635 5636 5637 5638 5640 5642 5643 5644 5646 5648 5650 5652 5653 5655 5656 5658 5659 5661 5662 5664 5665 5666 5667 5669 5669 5670 5670 5671 5671 5671 5671 5670 5670 5669 5668 5667
5623 5623 5624 5625 5626 5627 5629 5629 5629 5631 5632 5633 5635 5636 5637 5639 5641 5643 5644 5646 5648 5649 5651 5652 5653 5655 5656 5657 5658 5659 5660 5661 5662 5663 5663 5663 5663 5663 5663 5663 5662 5661 5660 5659
5617 5618 5620 5620 5620 5622 5625 5624 5624 5627 5628 5629 5630 5631 5632 5634 5636 5638 5639 5640 5642 5644 5645 5646 5647 5648 5649 5651 5652 5653 5654 5655 5655 5656 5656 5656 5656 5656 5656 5656 5655 5654 5653 5651
5611 5612 5614 5614 5615 5617 5619 5619 5620 5623 5624 5624 5624 5626 5627 5629 5631 5632 5634 5635 5636 5638 5639 5640 5641 5642 5643 5644 5645 5646 5647 5648 5649 5649 5649 5649 5649 5649 5649 5649 5648 5647 5646 5644
5605 5606 5607 5608 5609 5614 5613 5614 5615 5617 5617 5618 5619 5621 5622 5624 5625 5627 5628 5629 5630 5632 5633 5634 5635 5636 5637 5638 5639 5640 5641 5642 5642 5643 5643 5643 5643 5643 5642 5642 5641 5640 5639 5637
5599 5601 5601 5603 5606 5606 5607 5608 5609 5611 5612 5613 5614 5616 5617 5618 5620 5621 5622 5623 5625 5626 5627 5628 5629 5630 5631 5632 5633 5634 5635 5635 5636 5636 5636 5636 5636 5636 5636 5635 5634 5633 5632 5630
5592 5593 5595 5596 5598 5599 5600 5601 5603 5604 5606 5607 5609 5610 5612 5613 5614 5616 5617 5618 5619 5620 5621 5622 5623 5624 5625 5626 5627 5628 5628 5629 5630 5630 5630 5630 5630 5629 5629 5628 5627 5626 5625 5623
5585 5586 5587 5589 5592 5592 5594 5595 5597 5598 5600 5601 5603 5604 5606 5607 5609 5610 5611 5612 5613 5614 5615 5616 5617 5618 5619 5620 5621 5621 5622 5623 5623 5623 5623 5623 5623 5623 5622 5621 5620 5619 5618 5616
5577 5579 5581 5583 5584 5586 5588 5589 5590 5592 5593 5595 5596 5598 5599 5601 5602 5604 5605 5606 5607 5608 5609 5610 5611 5612 5613 5614 5614 5615 5616 5616 5616 5617 5617 5617 5616 5616 5615 5614 5613 5612 5610 5608
Wind_Speed
39 40 41 40 38 38 39 40 41 41 42 42 42 43 44 45 45 43 43 44 44 44 44 44 44 43 42 41 40 39 39 38 38 37 37 37 36 36 36 36 36 37 37 38
37 38 38 37 37 36 37 38 39 39 40 41 41 41 42 44 45 43 43 44 44 44 44 44 43 42 42 41 41 40 40 39 39 38 38 38 38 38 38 38 38 39 39 40
34 35 36 36 36 35 35 35 36 37 38 39 40 42 43 43 44 44 44 44 44 44 43 43 42 42 42 41 41 41 40 40 40 39 39 39 39 39 39 39 40 40 41 41
32 34 35 34 34 33 32 32 33 35 37 37 38 40 40 42 43 43 43 43 43 44 43 42 42 42 41 42 42 41 41 41 40 40 40 40 40 40 40 40 41 41 42 42
29 32 33 32 32 32 30 30 31 33 35 36 37 38 38 41 41 41 42 43 43 43 43 43 43 43 42 42 42 42 42 41 41 41 41 41 41 41 41 41 41 42 43 43
26 29 31 31 31 29 29 28 30 31 33 36 35 36 36 38 38 38 40 41 42 42 42 43 43 44 43 43 43 43 42 42 42 42 41 42 42 42 42 42 42 43 43 44
24 27 27 28 29 29 28 27 28 30 32 33 33 35 34 35 37 38 39 40 41 42 41 42 42 43 43 44 43 43 42 42 42 42 42 42 42 42 43 43 43 43 43 44
23 24 25 26 27 27 27 26 26 28 28 28 31 33 32 34 36 37 38 39 40 41 41 41 41 41 42 43 42 42 42 42 42 42 42 42 42 42 43 43 43 43 43 44
20 22 23 24 25 25 26 25 25 26 26 26 28 29 30 31 33 35 36 37 38 40 40 40 41 41 41 41 42 42 43 42 42 42 42 42 42 42 42 43 43 43 43 43
17 19 21 22 24 24 24 24 25 25 26 27 27 27 27 29 31 33 34 36 37 38 39 40 41 41 41 41 42 42 42 42 42 42 42 42 42 42 42 42 42 43 43 42
15 16 18 21 23 23 23 24 25 25 25 26 26 26 25 26 28 31 33 34 36 38 39 40 41 41 41 41 41 41 42 42 42 41 41 41 41 42 42 42 42 42 41 41
13 14 16 18 20 22 24 24 25 25 25 25 24 24 23 25 26 28 31 32 34 36 37 39 39 40 40 40 40 40 40 40 41 41 40 40 40 40 40 40 40 40 39 39
13 14 16 18 20 21 22 23 24 25 26 25 24 23 23 23 24 26 27 30 31 33 35 37 37 38 38 39 39 39 39 39 39 39 39 38 38 38 38 38 38 37 37 36
13 14 15 17 18 19 21 22 23 25 26 25 24 22 22 23 23 24 25 27 29 31 32 34 35 36 36 36 37 37 37 37 37 37 36 36 36 36 36 35 35 34 34 33
13 15 16 17 18 19 21 22 23 24 23 24 23 23 22 23 23 24 24 25 27 28 30 31 32 32 33 33 33 33 34 34 34 34 34 34 34 33 33 32 32 32 31 31
14 15 16 17 18 20 21 21 22 22 23 23 24 23 22 23 23 23 23 24 25 26 26 27 28 28 29 29 30 30 30 30 30 31 31 31 31 31 30 30 30 30 30 30
15 16 17 17 18 19 19 20 21 21 21 22 22 20 24 23 22 22 22 22 23 23 24 24 25 26 27 27 27 27 27 28 28 28 28 28 28 29 28 28 28 28 28 29
17 17 18 18 19 19 18 20 21 21 21 21 20 20 21 21 22 22 21 21 22 22 22 23 23 24 24 25 25 26 26 26 26 26 26 27 27 27 27 26 27 27 27 28
18 18 18 18 19 18 18 18 20 20 20 20 20 20 21 21 21 20 21 21 21 21 21 22 22 23 23 24 24 24 24 24 25 25 25 25 25 25 25 25 26 26 27 27
20 19 19 18 18 17 17 18 19 19 19 19 19 20 20 20 20 20 20 20 21 21 21 22 22 23 23 23 23 23 23 23 23 24 23 23 23 24 24 24 25 25 26 26
21 21 21 20 19 17 17 17 18 18 18 18 18 19 19 20 21 21 21 21 21 21 21 22 22 22 22 22 22 22 22 22 22 22 22 22 22 22 23 23 24 24 25 25
22 22 22 22 21 18 18 18 18 18 18 18 19 19 20 20 21 21 21 21 21 21 21 21 21 21 21 21 21 21 21 21 21 21 21 21 21 22 22 22 23 23 24 24
22 22 22 22 21 20 20 20 19 19 19 19 19 19 19 19 20 20 21 21 21 21 21 21 21 21 21 21 21 21 21 21 20 20 20 20 20 21 21 22 22 23 23 24
23 23 23 22 22 22 22 21 21 21 21 21 21 20 20 20 20 20 20 20 20 21 21 21 21 21 21 21 21 21 21 21 20 20 21 21 21 21 21 22 22 23 24 24
24 25 24 23 22 23 24 23 23 23 22 22 22 22 22 21 21 20 20 20 21 21 21 21 21 21 21 21 21 21 21 21 21 21 21 21 21 21 22 22 23 24 25 25
25 25 25 23 23 23 23 24 24 24 24 23 23 23 23 23 23 22 22 22 21 22 22 22 21 21 21 21 21 21 21 21 21 21 21 21 21 22 22 23 24 25 26 26
Wind_Direction
189 194 198 201 204 208 213 216 219 219 220 221 223 223 224 226 226 226 227 228 228 227 227 228 230 233 236 238 240 243 246 248 251 254 257 260 263 266 269 272 275 277 279 281
187 191 192 196 199 204 209 212 216 218 220 222 222 222 223 225 226 227 227 227 228 229 229 230 232 235 237 240 242 244 246 249 252 255 258 261 264 267 270 272 275 277 279 281
185 187 190 194 197 201 207 212 215 218 221 224 224 224 224 226 227 227 227 228 229 230 231 232 234 236 238 241 243 246 248 250 253 256 259 262 265 268 270 273 275 277 279 280
183 185 188 193 197 202 206 210 214 217 221 225 227 227 227 227 228 229 229 230 231 232 233 233 234 236 239 242 244 247 250 252 254 256 259 262 265 267 270 272 275 277 279 280
180 184 187 192 196 201 205 209 214 218 222 225 227 229 226 228 229 230 230 232 233 234 235 235 236 237 240 242 244 247 250 253 255 258 260 262 265 268 270 272 274 276 277 279
180 184 187 192 196 200 204 209 215 219 223 227 228 230 227 228 229 229 230 232 233 235 236 237 238 239 241 243 245 247 250 253 256 259 261 263 266 268 270 272 273 275 276 278
179 182 185 190 194 198 204 209 213 218 224 228 229 232 228 226 227 228 230 230 232 234 236 237 238 239 241 243 246 248 250 252 255 258 261 263 265 267 269 271 273 275 276 278
182 183 187 191 195 201 208 211 218 224 228 230 232 234 231 227 228 229 230 231 232 233 235 237 239 240 242 244 246 248 250 252 255 257 260 262 265 267 269 271 273 274 276 278
185 188 191 196 199 203 209 215 220 227 231 234 236 236 232 229 229 230 231 232 233 234 235 237 239 240 242 244 246 248 251 253 255 257 259 262 264 266 268 270 272 274 276 277
188 192 197 201 205 210 214 217 223 229 235 238 238 237 233 230 231 232 233 233 234 235 236 237 239 241 243 244 246 248 251 253 255 257 259 261 264 266 268 270 272 274 275 276
192 198 202 206 210 215 216 219 224 231 236 240 241 239 235 234 233 233 233 234 235 236 237 238 240 241 243 244 246 248 251 253 255 257 259 262 264 266 268 270 272 273 274 276
206 210 211 212 215 217 221 223 228 233 238 241 242 240 237 238 237 236 236 235 236 236 237 239 240 242 244 245 247 249 251 253 255 257 260 262 264 266 268 270 271 273 274 275
217 218 217 219 221 222 225 229 232 235 239 241 242 242 240 242 241 240 240 239 239 239 239 240 241 243 245 247 248 250 253 254 256 258 260 262 264 266 268 269 271 272 273 275
227 227 226 226 228 230 231 231 234 238 240 241 242 242 241 242 242 242 242 241 241 240 241 242 243 245 246 248 249 251 253 255 257 258 260 262 264 266 268 269 270 271 273 275
237 236 234 233 234 235 234 235 237 240 241 241 240 241 240 242 242 242 242 241 241 241 242 243 245 246 247 249 250 252 254 256 257 259 260 262 264 265 267 268 269 271 273 275
239 237 236 235 236 236 236 237 240 241 243 245 243 242 243 243 242 241 241 241 241 242 243 245 245 246 248 249 250 252 253 255 257 259 260 261 263 264 266 268 269 271 273 276
242 241 239 239 241 242 239 239 240 242 244 245 243 241 242 241 239 238 239 240 241 242 244 245 245 246 248 249 250 251 253 255 257 258 260 262 263 264 266 268 269 271 274 277
244 244 244 243 244 246 246 242 242 244 245 245 242 240 242 241 240 240 240 240 241 242 243 245 247 248 249 250 250 251 253 255 256 258 260 262 263 264 266 267 270 273 276 279
245 245 245 244 245 246 246 245 243 243 243 244 241 240 241 240 240 240 241 241 242 244 245 247 249 249 250 251 252 253 253 255 256 259 261 262 263 264 266 269 272 275 277 280
245 245 246 246 248 246 246 244 242 242 241 242 241 240 239 239 239 239 240 241 244 246 247 248 249 250 251 251 252 252 253 255 257 259 261 262 263 265 267 270 273 276 279 281
246 246 246 247 248 245 245 244 242 242 241 240 239 238 237 239 240 242 243 245 247 247 249 250 250 250 250 251 251 252 253 255 258 259 260 262 264 266 268 271 275 278 280 282
247 247 247 248 249 246 244 243 242 243 241 239 239 239 239 241 244 245 246 247 247 248 249 250 250 249 249 250 251 252 254 255 258 259 261 263 265 267 269 272 275 277 280 283
247 247 247 247 247 247 245 244 244 243 242 242 242 242 242 244 246 246 247 247 247 248 248 249 249 249 250 251 252 252 253 255 257 259 261 264 266 268 270 273 275 278 281 284
247 247 248 247 246 246 246 245 244 244 244 243 243 243 245 246 247 248 248 248 248 248 250 251 251 251 252 253 253 253 253 255 257 260 262 264 266 269 271 274 277 279 282 285
249 248 248 247 246 246 246 246 245 244 244 244 244 244 245 246 248 248 248 249 251 250 249 251 251 251 252 253 254 254 255 256 259 261 263 265 267 270 272 275 277 280 283 285
250 249 247 246 246 246 245 245 245 245 244 245 245 245 246 247 249 249 249 250 251 251 250 251 253 253 253 254 255 255 256 257 260 262 264 266 268 271 273 276 279 282 284 286